Torna al catalogo

KUIPER-00353

AttivoComunicazioniLEO
NORAD 68865·PAYLOAD·🇺🇸 United States

Lanciato Apr 28, 2026 da Cape Canaveral Space Force Station

Loading…

Prossimi Passaggi (prossime 24 ore)

TLE

AggiornatoSource: CelesTrak SupGP

Epoca: Sep 15, 2026, 04:50 UTC

1 68865C 26095B   26258.20185185 -.00014529  00000+0 -19022-2 0  2584
2 68865  51.8992 197.6146 0000696 100.2895 275.9013 14.79937770    11

Traccia KUIPER-00353 in tempo reale con AllMySat

Download on the App Store